[[{"header":{"parameterUnit":"m.s-1","parameterCategory":1,"la1":30.2991,"la2":30.254,"lo1":-89.0895,"lo2":-89.0444,"dy":0.0017,"dx":0.0017,"nx":28,"ny":28,"refTime":"2025-09-01T03:00:00:Z","depth":0,"parameterNumber":2,"parameterNumberName":"U-component_of_WINDS"},"data":[0,0,0,0,0,0,0,0,0,0,0,0,0,0,0,0,0,0,0,0,0,0,0,0,0,0,0,0,0,0,0,0,0,0,0,0,0,0,0,0,0,0,0,0,0,0,0,0,0,0,0,0,0,0,0,0,0,0,-4.2036,-4.2037,0,-4.2169,-4.217,-4.2172,-4.2023,-4.2018,-4.2012,-4.2007,-4.2148,-4.2157,-4.2165,0,0,0,0,0,0,0,0,0,0,0,0,0,-4.1658,-4.1666,-4.2036,-4.2037,-4.2039,-4.2169,-4.217,-4.2172,-4.2024,-4.2017,-4.2011,-4.2004,-4.2145,-4.2155,-4.2166,0,0,0,0,0,0,0,0,0,0,0,0,0,-4.181,-4.1668,-4.2036,-4.1981,-4.1977,-4.2168,-4.217,-4.2173,-4.2026,-4.2017,-4.2009,-4.2001,-4.2141,-4.2154,-4.2168,-4.2421,0,0,-4.2209,-4.2215,0,0,0,0,0,0,0,0,-4.1801,-4.1824,-4.1987,-4.1985,-4.1981,-4.2071,-4.2089,-4.2256,-4.2028,-4.2008,-4.2006,-4.1997,-4.2129,-4.2143,-4.2187,-4.2427,-4.2433,-4.221,-4.2218,-4.2224,-4.2228,0,0,0,0,0,0,0,-4.1791,-4.1817,-4.2088,-4.199,-4.1986,-4.1951,-4.1963,-4.212,-4.2114,-4.2009,-4.1998,-4.2016,-4.2126,-4.2174,-4.2189,-4.2435,-4.221,-4.2222,-4.223,-4.2236,-4.289,-4.2899,0,0,0,0,0,0,-4.1786,-4.181,-4.2084,-4.2092,-4.1868,-4.1965,-4.1978,-4.2051,-4.2112,-4.2113,-4.2023,-4.2008,-4.2155,-4.2174,-4.2194,-4.2494,-4.2224,-4.2237,-4.2245,-4.2881,-4.2893,-4.2903,0,0,0,0,0,0,-4.1779,-4.1812,-4.2079,-4.1948,-4.1979,-4.198,-4.2063,-4.2058,-4.2106,-4.2123,-4.2122,-4.2073,-4.2149,-4.2175,-4.2365,-4.2497,-4.2243,-4.2255,-4.287,-4.2885,-4.2898,-4.3098,0,0,0,0,0,0,-4.1768,-4.181,-4.1905,-4.1951,-4.1987,-4.2248,-4.2071,-4.2066,-4.2129,-4.2111,-4.2169,-4.2171,-4.2145,-4.2346,-4.2379,-4.2511,-4.2266,-4.2859,-4.2877,-4.2893,-4.3079,-4.3117,-4.3149,0,0,0,0,0,-4.1755,-4.1957,-4.1911,-4.1945,-4.2106,-4.2255,-4.2276,-4.224,-4.214,-4.2236,-4.2247,-4.2169,-4.2477,-4.2366,-4.2402,-4.2541,-4.285,-4.2872,-4.2892,-4.3064,-4.3109,-4.3148,0,0,0,0,0,0,-4.1929,-4.1962,-4.1911,-4.2134,-4.2193,-4.223,-4.235,-4.2289,-4.2379,-4.2359,-4.2312,-4.2327,-4.2529,-4.2554,-4.243,-4.2789,-4.2647,-4.2676,-4.2766,-4.2809,-4.2843,-4.2834,-4.2277,0,0,0,0,0,-4.1992,-4.211,-4.2133,-4.2328,-4.236,-4.2351,-4.2414,-4.2381,-4.2441,-4.2466,-4.249,-4.2553,-4.2663,-4.2737,-4.284,-4.3082,-4.3093,-4.3195,-4.3229,-4.3258,-4.3284,-4.3414,-4.346,-4.2971,-4.2971,-4.2971,0,0,-4.2126,-4.2159,-4.2236,-4.2363,-4.2405,-4.2529,-4.2372,-4.251,-4.2602,-4.2487,-4.2668,-4.2689,-4.2755,-4.2973,-4.307,-4.3,-4.3421,-4.3284,-4.3307,-4.3318,-4.3441,-4.3487,-4.3528,-4.2985,-4.2983,-4.2981,0,0,-4.2433,-4.2469,-4.2635,-4.268,-4.2744,-4.2737,-4.2777,-4.2824,-4.2833,-4.3013,-4.293,-4.3039,-4.323,-4.3281,-4.3332,-4.3659,-4.359,-4.3693,-4.3875,-4.4003,-4.4042,-4.4076,-4.4193,-4.4236,-4.3719,-4.372,-4.372,0,-4.2592,-4.2774,-4.2729,-4.2873,-4.2932,-4.2831,-4.3,-4.3046,-4.3142,-4.3185,-4.3104,-4.3343,-4.338,-4.3608,-4.3688,-4.3732,-4.3778,-4.3687,-4.4039,-4.4073,-4.4104,-4.4216,-4.426,-4.3732,-4.373,-4.3729,-4.3728,0,-4.2966,-4.3094,-4.322,-4.3314,-4.3386,-4.3542,-4.3522,-4.3602,-4.3563,-4.3564,-4.375,-4.3792,-4.3901,-4.3952,-4.3916,-4.4177,-4.4131,-4.4046,-4.3903,-4.4164,-4.4268,-4.431,-4.3749,-4.3745,-4.3741,-4.3738,0,0,-4.3387,-4.3453,-4.35,-4.3542,-4.3605,-4.3704,-4.3855,-4.3961,-4.4031,-4.41,-4.4227,-4.4391,-4.4312,-4.437,-4.4339,-4.4451,-4.4708,-4.4352,-4.4353,-4.4418,-4.4999,-4.5063,-4.5113,-4.4662,-4.467,-4.4677,-4.4993,0,-4.3696,-4.3957,-4.3921,-4.4173,-4.4291,-4.4197,-4.4329,-4.4383,-4.4389,-4.4491,-4.4497,-4.4614,-4.4501,-4.4536,-4.4642,-4.4654,-4.4824,-4.4631,-4.4782,-4.4788,-4.4769,-4.5168,-4.5236,-4.5533,-4.5034,-4.5041,-4.5046,0,-4.4091,-4.4174,-4.4437,-4.4482,-4.453,-4.465,-4.4744,-4.4842,-4.4902,-4.4898,-4.4963,-4.4911,-4.5064,-4.4918,-4.5129,-4.4998,-4.5058,-4.5073,-4.5084,-4.5097,-4.4934,-4.5194,-4.5627,-4.5672,-4.5109,-4.5104,-4.5099,0,-4.4374,-4.455,-4.473,-4.4769,-4.4826,-4.4912,-4.494,-4.4991,-4.5057,-4.514,-4.5182,-4.5283,-4.5338,-4.5418,-4.5395,-4.529,-4.5612,-4.5463,-4.5615,-4.5616,-4.5688,-4.5684,-4.6138,-4.5725,-4.5724,-4.5723,-4.5722,0,-4.4723,-4.4888,-4.4858,-4.4969,-4.5152,-4.5109,-4.5291,-4.5308,-4.5355,-4.5468,-4.5394,-4.5502,-4.5465,-4.5572,-4.5556,-4.5734,-4.5759,-4.5762,-4.5756,-4.5769,-4.5769,-4.5809,-4.5788,-4.5735,-4.5732,-4.573,-4.5728,0,-4.507,-4.5056,-4.5246,-4.5285,-4.5298,-4.5431,-4.5464,-4.557,-4.5568,-4.5713,-4.5745,-4.5745,-4.5867,-4.5851,-4.5989,-4.5977,-4.6199,-4.6168,-4.6179,-4.6172,-4.6325,-4.6312,-4.6822,-4.6887,-4.6431,-4.6435,-4.6439,0,-4.5294,-4.5419,-4.547,-4.554,-4.5574,-4.5688,-4.5754,-4.5718,-4.579,-4.5868,-4.5964,-4.6079,-4.6169,-4.6369,-4.6382,-4.6487,-4.6458,-4.663,-4.6473,-4.6483,-4.6462,-4.6455,-4.6468,-4.6661,-4.6666,-4.667,-4.6674,0,-4.5695,-4.5682,-4.5779,-4.5876,-4.5957,-4.6031,-4.6098,-4.616,-4.613,-4.6215,-4.6338,-4.6408,-4.6547,-4.6663,-4.6762,-4.6792,-4.673,-4.6723,-4.6763,-4.6779,-4.6781,-4.6783,-4.6264,-4.6711,-4.6708,-4.6705,-4.6703,-4.6701,-4.5988,-4.6094,-4.6147,-4.6259,-4.6305,-4.6369,-4.647,-4.6481,-4.6582,-4.6692,-4.6664,-4.6804,-4.6861,-4.6986,-4.7027,-4.7137,-4.7074,-4.7133,-4.7148,-4.7164,-4.7182,-4.6763,-4.7155,-4.7153,-4.7152,-4.7152,-4.7151,0,-4.6385,-4.6414,-4.6517,-4.6613,-4.6701,-4.6632,-4.6702,-4.6781,-4.6905,-4.6963,-4.7052,-4.7195,-4.7307,-4.7328,-4.7435,-4.7519,-4.7493,-4.7548,-4.7542,-4.7551,-4.7232,-4.7186,-4.7568,-4.7567,-4.7567,-4.7567,-4.7567,-4.7567,-4.6603,-4.6779,-4.6773,-4.6972,-4.6999,-4.7135,-4.7181,-4.7241,-4.7286,-4.7448,-4.754,-4.7552,-4.7596,-4.7705,-4.7806,-4.7809,-4.7853,-4.792,-4.7913,-4.7615,-4.7573,-4.7533,-4.749,-4.7929,-4.793,-4.8222,-4.8225,-4.8227]},{"header":{"parameterUnit":"m.s-1","parameterCategory":1,"la1":30.2991,"la2":30.254,"lo1":-89.0895,"lo2":-89.0444,"dy":0.0017,"dx":0.0017,"nx":28,"ny":28,"refTime":"2025-09-01T03:00:00:Z","depth":0,"parameterNumber":3,"parameterNumberName":"V-component_of_WINDS"},"data":[0,0,0,0,0,0,0,0,0,0,0,0,0,0,0,0,0,0,0,0,0,0,0,0,0,0,0,0,0,0,0,0,0,0,0,0,0,0,0,0,0,0,0,0,0,0,0,0,0,0,0,0,0,0,0,0,0,0,-1.616,-1.616,0,-1.6126,-1.6126,-1.6125,-1.6103,-1.6103,-1.6103,-1.6103,-1.6068,-1.6067,-1.6066,0,0,0,0,0,0,0,0,0,0,0,0,0,-1.6204,-1.6203,-1.616,-1.616,-1.6159,-1.6126,-1.6126,-1.6125,-1.6103,-1.6103,-1.6103,-1.6103,-1.6068,-1.6067,-1.6066,0,0,0,0,0,0,0,0,0,0,0,0,0,-1.6179,-1.6203,-1.616,-1.6144,-1.6142,-1.6126,-1.6126,-1.6125,-1.6103,-1.6103,-1.6103,-1.6102,-1.6069,-1.6067,-1.6066,-1.6063,0,0,-1.6063,-1.6062,0,0,0,0,0,0,0,0,-1.618,-1.6177,-1.6147,-1.6145,-1.6143,-1.6119,-1.6128,-1.6105,-1.6103,-1.6118,-1.6103,-1.6102,-1.6085,-1.6082,-1.6077,-1.6062,-1.606,-1.6063,-1.6062,-1.6061,-1.6061,0,0,0,0,0,0,0,-1.6182,-1.6179,-1.6147,-1.6147,-1.6144,-1.6138,-1.6134,-1.6124,-1.6103,-1.6117,-1.6115,-1.6111,-1.6084,-1.6078,-1.6076,-1.606,-1.6063,-1.6062,-1.6061,-1.606,-1.6039,-1.6039,0,0,0,0,0,0,-1.6187,-1.618,-1.6148,-1.6146,-1.6162,-1.6138,-1.6133,-1.6127,-1.6103,-1.6099,-1.6112,-1.611,-1.608,-1.6077,-1.6074,-1.6068,-1.6061,-1.606,-1.606,-1.6038,-1.6039,-1.6039,0,0,0,0,0,0,-1.6188,-1.6184,-1.6149,-1.6162,-1.6158,-1.6137,-1.613,-1.6126,-1.612,-1.6099,-1.6095,-1.6109,-1.608,-1.6076,-1.6066,-1.6067,-1.606,-1.6059,-1.6038,-1.6038,-1.6039,-1.6056,0,0,0,0,0,0,-1.6189,-1.6184,-1.6184,-1.6163,-1.6157,-1.6142,-1.613,-1.6126,-1.6118,-1.6116,-1.6096,-1.6092,-1.6079,-1.6068,-1.6065,-1.6065,-1.6058,-1.6038,-1.6038,-1.6039,-1.6056,-1.6057,-1.6058,0,0,0,0,0,-1.6191,-1.619,-1.6184,-1.618,-1.6156,-1.6142,-1.6139,-1.6123,-1.6118,-1.6117,-1.6103,-1.6093,-1.6067,-1.6067,-1.6063,-1.6063,-1.6038,-1.6038,-1.6039,-1.6055,-1.6057,-1.6058,0,0,0,0,0,0,-1.6213,-1.6188,-1.618,-1.6173,-1.616,-1.6138,-1.6136,-1.6126,-1.6114,-1.6113,-1.6094,-1.609,-1.6081,-1.6071,-1.6071,-1.6058,-1.6051,-1.6051,-1.6065,-1.6066,-1.6068,-1.607,-1.6057,0,0,0,0,0,-1.6217,-1.6208,-1.6186,-1.6182,-1.6176,-1.6157,-1.6151,-1.614,-1.6125,-1.612,-1.6105,-1.6091,-1.608,-1.6073,-1.6061,-1.6054,-1.6048,-1.6052,-1.6053,-1.6055,-1.6054,-1.6048,-1.6049,-1.604,-1.604,-1.604,0,0,-1.6225,-1.621,-1.6206,-1.6186,-1.6175,-1.6165,-1.6153,-1.6144,-1.6136,-1.6118,-1.6107,-1.6096,-1.6079,-1.607,-1.6065,-1.6061,-1.6055,-1.6055,-1.6056,-1.6055,-1.6048,-1.6049,-1.605,-1.604,-1.604,-1.604,0,0,-1.6235,-1.6223,-1.6218,-1.6206,-1.6189,-1.6176,-1.6174,-1.6154,-1.6146,-1.6134,-1.612,-1.6111,-1.6092,-1.6079,-1.6071,-1.6074,-1.6064,-1.6071,-1.6078,-1.6072,-1.6073,-1.6073,-1.6073,-1.6074,-1.6071,-1.6071,-1.6071,0,-1.6248,-1.6233,-1.6217,-1.6208,-1.6199,-1.6181,-1.6175,-1.6164,-1.6144,-1.6138,-1.6134,-1.6108,-1.6096,-1.6082,-1.6083,-1.6077,-1.6074,-1.6073,-1.6074,-1.6075,-1.6075,-1.6075,-1.6075,-1.6072,-1.6072,-1.6071,-1.6071,0,-1.6249,-1.6239,-1.6236,-1.6216,-1.6207,-1.62,-1.6181,-1.6174,-1.6163,-1.615,-1.6138,-1.6122,-1.6106,-1.6102,-1.6092,-1.6087,-1.6085,-1.6078,-1.6071,-1.6077,-1.6076,-1.6076,-1.6073,-1.6073,-1.6072,-1.6072,0,0,-1.6273,-1.6242,-1.6242,-1.6231,-1.621,-1.6201,-1.6192,-1.6176,-1.617,-1.6156,-1.6147,-1.613,-1.6123,-1.6113,-1.6101,-1.6096,-1.6098,-1.6089,-1.6088,-1.609,-1.6089,-1.6095,-1.6095,-1.6091,-1.6091,-1.6091,-1.609,0,-1.6279,-1.6262,-1.6246,-1.6235,-1.6224,-1.6207,-1.6199,-1.6184,-1.6172,-1.616,-1.6146,-1.6134,-1.6126,-1.612,-1.6114,-1.6099,-1.6097,-1.6099,-1.6082,-1.6081,-1.6086,-1.6095,-1.6101,-1.6101,-1.609,-1.609,-1.609,0,-1.6284,-1.627,-1.6258,-1.6235,-1.623,-1.6224,-1.6206,-1.6196,-1.6179,-1.617,-1.6158,-1.6145,-1.6134,-1.6127,-1.6111,-1.6112,-1.6104,-1.6095,-1.6095,-1.6092,-1.6086,-1.6092,-1.6101,-1.6101,-1.609,-1.609,-1.609,0,-1.6301,-1.628,-1.6269,-1.6261,-1.6235,-1.623,-1.6219,-1.6201,-1.6192,-1.6177,-1.617,-1.6154,-1.6145,-1.6133,-1.6115,-1.6113,-1.61,-1.6092,-1.6091,-1.6091,-1.6089,-1.609,-1.6097,-1.6085,-1.6085,-1.6085,-1.6085,0,-1.631,-1.6303,-1.6276,-1.627,-1.626,-1.6241,-1.6233,-1.622,-1.6204,-1.6194,-1.6177,-1.6168,-1.6146,-1.6134,-1.612,-1.6107,-1.6104,-1.6095,-1.6092,-1.6096,-1.6097,-1.6091,-1.609,-1.6085,-1.6085,-1.6085,-1.6085,0,-1.6328,-1.631,-1.6297,-1.6273,-1.6266,-1.6261,-1.6239,-1.6232,-1.6218,-1.6205,-1.6201,-1.6179,-1.6163,-1.6145,-1.6123,-1.6114,-1.6102,-1.6097,-1.6108,-1.6106,-1.6105,-1.6105,-1.6108,-1.6107,-1.6097,-1.6097,-1.6097,0,-1.6334,-1.6328,-1.6303,-1.6295,-1.6284,-1.6271,-1.6261,-1.6242,-1.6232,-1.621,-1.6205,-1.6188,-1.6174,-1.615,-1.6131,-1.6114,-1.6108,-1.611,-1.6106,-1.611,-1.6107,-1.6107,-1.6106,-1.6112,-1.6112,-1.6112,-1.6112,0,-1.6346,-1.6337,-1.6324,-1.6307,-1.6295,-1.6281,-1.6266,-1.626,-1.6237,-1.6227,-1.6211,-1.6199,-1.6177,-1.616,-1.614,-1.6128,-1.6116,-1.6114,-1.6112,-1.6117,-1.6123,-1.6119,-1.6111,-1.6114,-1.6114,-1.6114,-1.6113,-1.6113,-1.6358,-1.6351,-1.6332,-1.6317,-1.6303,-1.6289,-1.628,-1.6265,-1.6251,-1.6231,-1.622,-1.6204,-1.6184,-1.6157,-1.6144,-1.6131,-1.6127,-1.6125,-1.6124,-1.6124,-1.6125,-1.6126,-1.6127,-1.6127,-1.6127,-1.6127,-1.6127,0,-1.6369,-1.6355,-1.6341,-1.632,-1.6308,-1.6298,-1.628,-1.627,-1.6256,-1.6239,-1.6225,-1.6205,-1.6188,-1.6168,-1.6149,-1.6142,-1.6136,-1.6138,-1.6138,-1.6135,-1.613,-1.6133,-1.6143,-1.6143,-1.6143,-1.6143,-1.6143,-1.6143,-1.6373,-1.636,-1.6349,-1.6328,-1.6315,-1.6299,-1.6289,-1.6276,-1.6262,-1.6241,-1.6226,-1.6213,-1.6194,-1.6174,-1.6157,-1.6152,-1.6145,-1.6148,-1.6141,-1.6137,-1.6136,-1.6134,-1.6137,-1.6147,-1.6147,-1.6147,-1.6147,-1.6147]}]]